Погода Атырау

Погода Атырау : погода сейчас, прогноз погоды и архив. Всё, что Вы хотите узнать о погоде Атырау!

Хотите узнать прогноз погоды в Атырау? Тогда Вам сюда: Погода в Атырау

Поиск расширенной информации на нашем сайте:

Другие новости

Новости СМИ2

Главная страница сайта

Новости сайта

03.07.2017

Напоминаем, что на нашем специализированном сайте Метеоцентр.Азия вы можете получить высокодетализированные автоматические прогнозы погоды по пунктам России, СНГ и мира в авиационном формате (включающие направление и скорость ветра, видимость, явления погоды, количество и форму облачности, нижнюю и верхнюю границу облачности).


Погода Атырау - сегодня

Время (UTC), дата Ветер
(°,м/с) 
Видим.   Явления Облачность Т
(°С)
Тd
(°С)
f(%) Тe
(°С)
Pmin
(гПа)
dP
(гПа)
Po
(мм)
O2
(г/м3)
Тmin Tmax R s Состояние
почвы
12 20.02.18 350 (С) 20000 м    10/10 600 м 
[Sc]
-1.2 -6.6 67 -3  1019.2  -0.1  766  311           
15 20.02.18 340 (С) 20000 м  слаб. снег  10/10 600 м 
[Sc]
-2.6 -6.3 76 -5  1020  0.8  767  313    -0.6  0.0     
21 20.02.18 350 (С) 20000 м  слаб. снег  10/10 300 м 
[Ns]
-4.8 -7.2 83 -7  1022.2  0.9  768  316           
03 21.02.18 340 (С) 4000 м  слаб. снег  10/10 600 м 
[Sc]
-7.1 -8.8 88 -9  1024.4  1.1  770  320  -7.2      мокрый или
старый снег
10-40% 
06 21.02.18 010 (С) 2000 м  слаб. снег  10/10 600 м 
[Sc]
-7.4 -8.7 90 -7  1026.1  1.7  771  320  -7.2    0.0     
09 21.02.18 050 (СВ) 20000 м  {снег}  4/0 верхняя 
[Ci ing]
-3 -7.2 73 -3  1026.2  771  315           
12 21.02.18 070 (В) 20000 м  {снег}  6/4 1000 м верхняя 
[Cu hum|Ci fib]
-0.7 -6.7 64 1026.2  771  312           
15 21.02.18 020 (С) 20000 м    ясно 
-2.1 -6.7 71 -2  1026.7  0.5  772  314    -0.3  0.0     
18 21.02.18 260 (З) 20000 м    ясно 
-5.6 -7.4 87 -5  1027.1  0.5  772  318    -0.3  0.0     
21 21.02.18 260 (З) 4000 м  дымка  ясно 
-7.1 -8.8 88 -7  1026.9  -0.2  772  320           
00 22.02.18 080 (В) 20000 м    ясно 
-7.5 -8.8 90 -7  1026.4  -0.5  772  321           
03 22.02.18 090 (В) 20000 м    4/4 600 м 
[Sc]
-8.4 -9.9 89 -10  1025.8  -0.6  771  322  -8.5      мокрый или
старый снег
10-40% 
06 22.02.18 100 (В) 2000 м  слаб. снег  10/10 600 м 
[Sc]
-6.2 -7.7 89 -8  1025.5  -0.3  771  319  -8.5         
09 22.02.18 100 (В) 20000 м  слаб. снег  10/10 600 м 
[Sc]
-3.7 -6.2 83 -6  1024.5  -1.1  770  315           
12 22.02.18 120 (ЮВ) 20000 м  {снег}  10/10 300 м 
[Frnb]
-2.7 -6.1 77 -4  1023.3  -1.2  769  314           
15 22.02.18 070 (В) 20000 м    10/10 1000 м 
[Sc]
-3.2 -6.3 79 -4  1022.9  -0.4  769  314    -2.5  0.0     
18 22.02.18 050 (СВ) 20000 м    10/10 600 м 
[Sc]
-3.5 -6.3 81 -6  1023  0.1  769  315    -2.5  0.0     
21 22.02.18 050 (СВ) 20000 м  {снег}  10/10 600 м 
[Sc]
-3.9 -6.8 80 -5  1022.8  -0.2  769  315           
00 23.02.18 020 (С) 20000 м  {снег}  10/10 300 м 
[Frnb]
-4.3 -6.2 87 -7  1022.7  -0.1  769  315           
06 23.02.18 040 (СВ) 20000 м    8/0 средняя, верхняя 
[Ac cuf|Cs]
-3.4 -6.6 78 -6  1023.2  0.5  769  315  -4.7    0.0     
09 23.02.18 040 (СВ) 20000 м    8/0 средняя, верхняя 
[Ac cuf|Cs]
-0.5 -6.8 62 -4  1022.8  -0.4  769  311           
12 23.02.18 050 (СВ) 20000 м    10/10 600 м 
[Sc]
-0.4 -7.9 57 -2  1022.3  -0.5  769  311           
15 23.02.18 060 (СВ) 20000 м    10/10 600 м 
[Sc]
-0.5 -6.8 62 -2  1022.3  769  311    -0.1       
18 23.02.18 070 (В) 20000 м    10/10 600 м 
[Sc]
-1.6 -6.8 68 -4  1022.1  -0.2  768  312    -0.1       
21 23.02.18 060 (СВ) 20000 м  слаб. снег  10/10 600 м 
[Sc]
-2.6 -6.3 76 -5  1021.1  -1  768  313           
Время (UTC), дата Ветер
(°,м/с) 
Видим.   Явления Облачность Т
(°С)
Тd
(°С)
f(%) Тe
(°С)
Pmin
(гПа)
dP
(гПа)
Po
(мм)
O2
(г/м3)
Тmin Tmax R s Состояние
почвы

Для получения пояснительной информации подведите курсор к названию столбца.

ПОГОДА Атырау - архив

Всё, что Вы хотите узнать о погоде Атырау - удобно и подробно!

Выберите нужную дату (начиная с 1 января 2015* года) и нажмите кнопку "Найти".
Будут отображены архивные сводки погоды по пункту Атырау, начиная с указанной даты.


Отображать данные в формате CSV (для использования в таблицах Excel)


Внимание! Наш архив погоды предназначен исключительно для личного некоммерческого использования в познавательных целях. Если Вам необходимы официальные справки о состоянии погоды (для производственных, юридических, коммерческих и т.п. целей), обращайтесь в органы Росгидромета.

*Примечание: данная дата относится к архиву по метеостанциям СССР (Россия, СНГ, Балтия).
Архив по метеостанциям Зарубежной Европы и Азии (кроме Китая) хранится 10 дней, по другим регионам земного шара (Китай, Африка, Америка, Австралия, Океания) - 1 день.

Атырау - район местоположения метеостанции


Название, широта, долгота, высота метеостанции:
Атырау (город) 47.1°ш. 51.7°д. -23 м над ур. моря [Казахстан]

Дополнительная информация

В oтличие oт бoльшинства пoгoдных сайтoв мы публикуем пoдрoбную метеoинфoрмацию в детальнoм прoфессиoнальнoм фoрмате.

Характеристики температуры и влажнoсти вoздуха измеряются на высoте 2 м в тени вдали oт зданий и деревьев.
Скoрoсть ветра измеряется на высoте 10 м (на урoвне рoста челoвека скoрoсть ветра ниже в 1.5-2 раза). Если метеoстанция нахoдится в гoрoде или в лесу, тo скoрoсть ветра занижена на 2-4 м/с пo сравнению с oткрытым местoм. Скoрoсть ветра над акватoриями крупных рек и oзёр, а также на вершинах хoлмoв на 2-5 м/с выше, чем в oбычных услoвиях.
Атмoсфернoе давление в разных тoчках местнoсти мoжет значительнo oтличаться oт давления на метеoстанции, в зависимoсти oт услoвий рельефа (при пoдъёме на 10 м давление пoнижается примернo на 1 мм рт.ст.).